TimeMST,TemperatureF,Dew PointF,Humidity,Sea Level PressureIn,VisibilityMPH,Wind Direction,Wind SpeedMPH,Gust SpeedMPH,PrecipitationIn,Events,Conditions,WindDirDegrees,DateUTC
12:58 AM,27.9,27.9,100,30.57,10.0,NNW,2.3,-,N/A,,Clear,330,2014-01-16 07:58:00
1:58 AM,23.5,23.5,100,30.58,10.0,ESE,4.6,-,N/A,,Clear,110,2014-01-16 08:58:00
2:58 AM,23.4,23.4,100,30.60,10.0,NNE,1.2,-,0.00,,Freezing Rain,30,2014-01-16 09:58:00
3:33 AM,23.0,23.0,100,30.53,9.0,SW,2.3,-,N/A,,Freezing Rain,220,2014-01-16 10:33:00
3:43 AM,23.0,23.0,100,30.52,3.0,Calm,Calm,-,N/A,,Freezing Rain,0,2014-01-16 10:43:00
3:53 AM,23.0,23.0,100,30.53,7.0,Calm,Calm,-,N/A,,Freezing Rain,0,2014-01-16 10:53:00
3:58 AM,23.4,23.2,99,30.59,10.0,Calm,Calm,-,0.00,,Freezing Rain,0,2014-01-16 10:58:00
4:23 AM,23.0,23.0,100,30.52,6.0,NW,1.2,-,N/A,,Freezing Rain,320,2014-01-16 11:23:00
4:28 AM,23.0,23.0,100,30.52,3.0,NNW,2.3,-,N/A,,Freezing Rain,330,2014-01-16 11:28:00
4:33 AM,23.0,23.0,100,30.52,4.0,NW,1.2,-,N/A,,Freezing Rain,310,2014-01-16 11:33:00
4:38 AM,23.0,23.0,100,30.52,10.0,NNW,1.2,-,N/A,,Freezing Rain,330,2014-01-16 11:38:00
4:43 AM,23.0,23.0,100,30.51,6.0,Calm,Calm,-,N/A,,Freezing Rain,0,2014-01-16 11:43:00
4:48 AM,23.0,23.0,100,30.51,4.0,Calm,Calm,-,N/A,,Freezing Rain,0,2014-01-16 11:48:00
4:53 AM,23.0,23.0,100,30.52,5.0,NNW,2.3,-,N/A,,Freezing Rain,330,2014-01-16 11:53:00
4:58 AM,22.5,22.5,100,30.58,10.0,Variable,1.2,-,0.00,,Freezing Rain,0,2014-01-16 11:58:00
5:13 AM,21.2,21.2,100,30.51,5.0,ENE,3.5,-,N/A,,Clear,60,2014-01-16 12:13:00
5:18 AM,21.2,21.2,100,30.52,0.5,ENE,3.5,-,N/A,Fog,Light Freezing Fog,70,2014-01-16 12:18:00
5:23 AM,21.2,21.2,100,30.52,0.2,East,3.5,-,N/A,Fog,Light Freezing Fog,80,2014-01-16 12:23:00
5:53 AM,21.2,21.2,100,30.52,0.5,ENE,4.6,-,N/A,Fog,Light Freezing Fog,60,2014-01-16 12:53:00
5:58 AM,20.8,20.8,100,30.61,4.0,NE,4.6,-,0.00,,Clear,50,2014-01-16 12:58:00
6:03 AM,21.2,21.2,100,30.52,8.0,NE,4.6,-,N/A,,Clear,50,2014-01-16 13:03:00
6:33 AM,21.2,21.2,100,30.51,4.0,NE,4.6,-,N/A,,Clear,40,2014-01-16 13:33:00
6:43 AM,21.2,21.2,100,30.51,1.2,ENE,2.3,-,N/A,,Clear,60,2014-01-16 13:43:00
6:48 AM,21.2,21.2,100,30.51,0.5,NE,2.3,-,N/A,Fog,Light Freezing Fog,50,2014-01-16 13:48:00
6:58 AM,20.8,20.8,100,30.61,0.5,NNE,2.3,-,N/A,Fog,Light Freezing Fog,20,2014-01-16 13:58:00
7:03 AM,21.2,21.2,100,30.52,10.0,NNE,3.5,-,N/A,,Clear,30,2014-01-16 14:03:00
7:13 AM,21.2,21.2,100,30.52,0.8,ENE,2.3,-,N/A,,Scattered Clouds,70,2014-01-16 14:13:00
7:29 AM,19.4,19.4,100,30.51,0.5,ENE,3.5,-,N/A,Fog,Light Freezing Fog,60,2014-01-16 14:29:00
7:58 AM,19.9,19.9,100,30.63,0.2,East,2.3,-,0.00,,Unknown,100,2014-01-16 14:58:00
8:05 AM,19.4,19.4,100,30.53,0.2,ESE,2.3,-,N/A,Fog,Light Freezing Fog,110,2014-01-16 15:05:00
8:58 AM,21.6,21.6,100,30.65,0.2,East,2.3,-,0.00,Fog,Light Freezing Fog,90,2014-01-16 15:58:00
9:58 AM,26.1,26.1,100,30.65,0.5,ESE,4.6,-,N/A,Fog,Light Freezing Fog,120,2014-01-16 16:58:00
10:19 AM,26.6,26.6,100,30.56,0.2,SE,2.3,-,N/A,Fog,Light Freezing Fog,140,2014-01-16 17:19:00
10:58 AM,27.9,27.9,100,30.66,0.2,East,3.5,-,N/A,Fog,Light Freezing Fog,100,2014-01-16 17:58:00
11:10 AM,28.4,28.4,100,30.57,0.5,East,3.5,-,N/A,Fog,Light Freezing Fog,90,2014-01-16 18:10:00
11:20 AM,30.2,30.2,100,30.56,1.0,ESE,4.6,-,N/A,,Mist,110,2014-01-16 18:20:00
11:24 AM,30.2,30.2,100,30.56,1.5,ESE,4.6,-,N/A,,Mostly Cloudy,110,2014-01-16 18:24:00
11:28 AM,30.2,30.2,100,30.56,2.5,East,3.5,-,N/A,,Mostly Cloudy,100,2014-01-16 18:28:00
11:41 AM,32.0,32.0,100,30.55,4.0,East,3.5,-,N/A,,Mostly Cloudy,100,2014-01-16 18:41:00
11:48 AM,32.0,32.0,100,30.55,6.0,East,3.5,-,N/A,,Scattered Clouds,90,2014-01-16 18:48:00
11:58 AM,32.4,32.0,99,30.63,7.0,East,3.5,-,N/A,,Partly Cloudy,80,2014-01-16 18:58:00
12:58 PM,36.5,36.5,100,30.59,10.0,East,4.6,-,0.00,,Clear,100,2014-01-16 19:58:00
1:58 PM,40.3,34.0,78,30.57,10.0,WNW,4.6,-,N/A,,Clear,300,2014-01-16 20:58:00
2:58 PM,41.0,37.0,86,30.55,10.0,WSW,4.6,-,N/A,,Clear,250,2014-01-16 21:58:00
3:58 PM,40.3,38.8,95,30.53,10.0,SW,6.9,-,N/A,,Clear,230,2014-01-16 22:58:00
4:58 PM,39.7,37.2,91,30.55,10.0,WSW,5.8,-,N/A,,Clear,240,2014-01-16 23:58:00
5:58 PM,33.8,33.8,100,30.55,10.0,SW,4.6,-,N/A,,Clear,230,2014-01-17 00:58:00
6:58 PM,30.4,30.4,100,30.56,10.0,East,2.3,-,0.00,,Clear,90,2014-01-17 01:58:00
7:58 PM,29.5,29.5,100,30.57,9.0,ENE,5.8,-,N/A,,Clear,70,2014-01-17 02:58:00
8:58 PM,28.8,28.8,100,30.57,9.0,ENE,9.2,-,N/A,,Clear,70,2014-01-17 03:58:00
9:58 PM,27.3,27.3,100,30.56,10.0,East,4.6,-,N/A,,Clear,80,2014-01-17 04:58:00
10:58 PM,25.3,25.3,100,30.56,9.0,East,5.8,-,N/A,,Clear,100,2014-01-17 05:58:00
11:58 PM,25.0,25.0,100,30.55,10.0,ENE,4.6,-,N/A,,Clear,70,2014-01-17 06:58:00